This is the latest recevied weather packets stored in our database for station/object N1ICS-1. If no packets are shown the sender has not sent any weather packets the latest 10 day(s).
| Time | Temp. | Humidity | Pressure | Rain* | Wind** | Luminosity | Snow |
|---|---|---|---|---|---|---|---|
| 1777729202 | 5.56° C | 72% | 1020.4 hPa | 0 mm | - | 525 W/m² | - |
| 1777728902 | 5° C | 75% | 1020.4 hPa | 0 mm | - | 503 W/m² | - |
| 1777728602 | 5.56° C | 77% | 1020.5 hPa | 0 mm | - | 482 W/m² | - |
| 1777728302 | 5° C | 79% | 1020.4 hPa | 0 mm | - | 462 W/m² | - |
| 1777728003 | 5° C | 76% | 1020.4 hPa | 0 mm | - | 439 W/m² | - |
| 1777727703 | 4.44° C | 75% | 1020.4 hPa | 0 mm | - | 419 W/m² | - |
| 1777727402 | 5° C | 79% | 1020.3 hPa | 0 mm | - | 397 W/m² | - |
| 1777727101 | 4.44° C | 78% | 1020.1 hPa | 0 mm | - | 378 W/m² | - |
| 1777726802 | 4.44° C | 78% | 1020 hPa | 0 mm | - | 357 W/m² | - |
| 1777726502 | 3.89° C | 79% | 1020.1 hPa | 0 mm | - | 338 W/m² | - |
| 1777726201 | 3.89° C | 80% | 1020.1 hPa | 0 mm | - | 318 W/m² | - |
| 1777725901 | 3.89° C | 80% | 1020 hPa | 0 mm | - | 301 W/m² | - |
| 1777725602 | 3.33° C | 80% | 1019.9 hPa | 0 mm | - | 282 W/m² | - |
| 1777725302 | 3.33° C | 78% | 1020 hPa | 0 mm | - | 264 W/m² | - |
| 1777725002 | 3.33° C | 80% | 1019.8 hPa | 0 mm | - | 247 W/m² | - |
| 1777724702 | 3.33° C | 81% | 1019.7 hPa | 0 mm | - | 228 W/m² | - |
| 1777724401 | 2.78° C | 81% | 1019.7 hPa | 0 mm | - | 210 W/m² | - |
| 1777724102 | 2.78° C | 82% | 1019.8 hPa | 0 mm | - | 191 W/m² | - |
| 1777723802 | 2.78° C | 81% | 1019.7 hPa | 0 mm | - | 148 W/m² | - |
| 1777723502 | 2.22° C | 82% | 1019.6 hPa | 0 mm | - | 159 W/m² | - |
| 1777723203 | 2.22° C | 83% | 1019.5 hPa | 0 mm | - | 139 W/m² | - |
| 1777722901 | 1.67° C | 84% | 1019.7 hPa | 0 mm | - | 126 W/m² | - |
| 1777722602 | 1.67° C | 84% | 1019.7 hPa | 0 mm | - | 110 W/m² | - |
| 1777722302 | 1.67° C | 85% | 1019.8 hPa | 0 mm | - | 96 W/m² | - |
| 1777722001 | 1.11° C | 87% | 1019.8 hPa | 0 mm | - | 86 W/m² | - |
* Rain latest hour (hover to see other rain measurements)
** Current wind speed in m/s (hover to see current wind gust speed)